Location: Del Amo
(33.8464°N, 118.2104°W)
Time: 06:55:54
(UTC+00:00)

Vanguard 1 Rocket - Pass Details

Date: 17 September 2024
Orbit: 650 x 4218 km, 34.3° (Epoch: 09 October)

Event Time Altitude Azimuth Distance (km) Brightness Sun altitude
Rises 07:41:48 0° 185° (S) 4,079 - -54.1°
Reaches altitude 10° 07:45:18 10° 166° (SSE) 3,560 - -54.1°
Maximum altitude 07:51:22 19° 125° (SE) 3,686 - -54.1°
Exits shadow 07:57:38 13° 95° (E) 4,828 11.0 -54.1°
Drops below altitude 10° 08:00:05 10° 88° (E) 5,389 11.3 -54.0°
Sets 08:07:26 0° 74° (ENE) 7,155 12.2 -53.8°
